| time (UTC) | temp F | wind direction | speed knots | gust knots | rain 1hr in | rain 24hr in | rain mn in | humidity % | barometer mb |
| 20260510044542 | 76 | 195 | 4.3 | 10.4 | 0.00 | 0.01 | 0.01 | 67 | 1010.1 |
| 20260510043040 | 76 | 148 | 5.2 | 11.3 | 0.00 | 0.01 | 0.01 | 67 | 1010.0 |
| 20260510041536 | 76 | 169 | 4.3 | 9.6 | 0.00 | 0.01 | 0.01 | 67 | 1010.0 |
| 20260510040038 | 76 | 187 | 5.2 | 12.2 | 0.00 | 0.01 | 0.01 | 66 | 1010.2 |
| 20260510034535 | 76 | 190 | 5.2 | 11.3 | 0.00 | 0.01 | 0.01 | 64 | 1010.3 |
| 20260510033048 | 77 | 176 | 4.3 | 13.0 | 0.00 | 0.01 | 0.01 | 62 | 1010.2 |
| 20260510031540 | 77 | 186 | 5.2 | 10.4 | 0.00 | 0.01 | 0.01 | 61 | 1010.3 |
| 20260510030038 | 77 | 157 | 4.3 | 10.4 | 0.00 | 0.01 | 0.01 | 60 | 1010.1 |
| 20260510024536 | 78 | 177 | 4.3 | 9.6 | 0.00 | 0.01 | 0.01 | 58 | 1010.1 |
| 20260510023034 | 78 | 169 | 4.3 | 10.4 | 0.00 | 0.01 | 0.01 | 56 | 1010.2 |
| 20260510021543 | 79 | 121 | 4.3 | 8.7 | 0.00 | 0.01 | 0.01 | 56 | 1009.9 |
| 20260510020040 | 79 | 188 | 4.3 | 10.4 | 0.00 | 0.01 | 0.01 | 57 | 1009.6 |
| 20260510014540 | 80 | 173 | 4.3 | 7.8 | 0.00 | 0.01 | 0.01 | 56 | 1009.6 |
| 20260510013035 | 81 | 141 | 3.5 | 8.7 | 0.00 | 0.01 | 0.01 | 55 | 1009.6 |
| 20260510011536 | 82 | 126 | 2.6 | 8.7 | 0.00 | 0.01 | 0.01 | 53 | 1009.5 |
| 20260510010038 | 83 | 168 | 3.5 | 8.7 | 0.00 | 0.01 | 0.01 | 50 | 1009.4 |
| 20260510004540 | 84 | 132 | 4.3 | 11.3 | 0.00 | 0.01 | 0.01 | 48 | 1009.3 |
| 20260510003050 | 85 | 201 | 4.3 | 12.2 | 0.00 | 0.01 | 0.01 | 47 | 1009.3 |
| 20260510001536 | 86 | 194 | 3.5 | 9.6 | 0.00 | 0.01 | 0.01 | 44 | 1009.4 |
| 20260510000039 | 86 | 175 | 3.5 | 8.7 | 0.00 | 0.01 | 0.01 | 43 | 1009.5 |
| 20260509234544 | 87 | 161 | 6.1 | 10.4 | 0.00 | 0.01 | 0.01 | 42 | 1009.5 |
| 20260509233040 | 87 | 170 | 4.3 | 10.4 | 0.00 | 0.01 | 0.01 | 41 | 1009.6 |
| 20260509231539 | 87 | 161 | 4.3 | 10.4 | 0.00 | 0.01 | 0.01 | 41 | 1009.5 |
| 20260509230041 | 88 | 167 | 2.6 | 8.7 | 0.00 | 0.01 | 0.01 | 42 | 1009.5 |
| 20260509224546 | 88 | 128 | 5.2 | 9.6 | 0.00 | 0.01 | 0.01 | 40 | 1009.6 |
| 20260509223047 | 89 | 196 | 5.2 | 11.3 | 0.00 | 0.01 | 0.01 | 40 | 1009.6 |
| 20260509221538 | 89 | 122 | 5.2 | 11.3 | 0.00 | 0.01 | 0.01 | 40 | 1009.6 |
| 20260509220039 | 89 | 163 | 5.2 | 10.4 | 0.00 | 0.01 | 0.01 | 39 | 1009.5 |
| 20260509214542 | 89 | 202 | 3.5 | 8.7 | 0.00 | 0.01 | 0.01 | 38 | 1009.6 |
| 20260509213041 | 90 | 132 | 3.5 | 9.6 | 0.00 | 0.01 | 0.01 | 41 | 1009.7 |
| 20260509211537 | 89 | 214 | 2.6 | 10.4 | 0.00 | 0.01 | 0.01 | 41 | 1009.9 |
| 20260509210037 | 89 | 214 | 3.5 | 8.7 | 0.00 | 0.01 | 0.01 | 41 | 1010.2 |
| 20260509204542 | 89 | 169 | 4.3 | 8.7 | 0.00 | 0.01 | 0.01 | 43 | 1010.4 |
| 20260509203052 | 90 | 227 | 3.5 | 11.3 | 0.00 | 0.01 | 0.01 | 41 | 1010.7 |
| 20260509201539 | 89 | 232 | 3.5 | 9.6 | 0.00 | 0.01 | 0.01 | 45 | 1010.9 |
| 20260509200038 | 89 | 230 | 3.5 | 6.1 | 0.00 | 0.01 | 0.01 | 44 | 1011.0 |
| 20260509194535 | 88 | 192 | 4.3 | 9.6 | 0.00 | 0.01 | 0.01 | 46 | 1011.2 |
| 20260509193041 | 88 | 198 | 3.5 | 8.7 | 0.00 | 0.01 | 0.01 | 48 | 1011.4 |
| 20260509191544 | 87 | 109 | 2.6 | 7.8 | 0.00 | 0.01 | 0.01 | 47 | 1011.6 |
| 20260509190041 | 88 | 145 | 1.7 | 5.2 | 0.00 | 0.01 | 0.01 | 48 | 1011.6 |
| 20260509184545 | 87 | 223 | 1.7 | 6.1 | 0.00 | 0.01 | 0.01 | 46 | 1011.7 |
| 20260509183038 | 87 | 185 | 4.3 | 7.8 | 0.00 | 0.01 | 0.01 | 48 | 1011.9 |
| 20260509181603 | 85 | 336 | 1.7 | 6.1 | 0.00 | 0.01 | 0.01 | 54 | 1012.1 |
| 20260509180108 | 85 | 227 | 1.7 | 5.2 | 0.00 | 0.01 | 0.01 | 54 | 1012.4 |
| 20260509174540 | 85 | 115 | 1.7 | 6.1 | 0.00 | 0.01 | 0.01 | 54 | 1012.5 |
| 20260509173043 | 83 | 249 | 1.7 | 3.5 | 0.00 | 0.01 | 0.01 | 60 | 1012.9 |
| 20260509171545 | 83 | 226 | 0.9 | 4.3 | 0.00 | 0.01 | 0.01 | 59 | 1013.0 |
| 20260509170048 | 82 | 183 | 0.9 | 5.2 | 0.00 | 0.01 | 0.01 | 59 | 1013.2 |
| 20260509164540 | 80 | 156 | 1.7 | 4.3 | 0.00 | 0.01 | 0.01 | 65 | 1013.3 |
| 20260509163038 | 80 | 204 | 1.7 | 5.2 | 0.00 | 0.01 | 0.01 | 65 | 1013.3 |
| 20260509161545 | 79 | 318 | 0.9 | 3.5 | 0.00 | 0.01 | 0.01 | 68 | 1013.3 |
| 20260509160036 | 77 | 230 | 0.9 | 4.3 | 0.00 | 0.01 | 0.01 | 72 | 1013.3 |
| 20260509154535 | 77 | 312 | 1.7 | 4.3 | 0.00 | 0.01 | 0.01 | 72 | 1013.3 |
| 20260509153040 | 76 | 306 | 1.7 | 7.0 | 0.00 | 0.01 | 0.01 | 74 | 1013.4 |
| 20260509151540 | 75 | 215 | 2.6 | 7.8 | 0.00 | 0.01 | 0.01 | 76 | 1013.3 |
| 20260509150038 | 74 | 289 | 3.5 | 7.0 | 0.00 | 0.01 | 0.01 | 77 | 1013.3 |
| 20260509144538 | 74 | 279 | 3.5 | 7.8 | 0.00 | 0.01 | 0.01 | 78 | 1013.2 |
| 20260509143041 | 73 | 296 | 3.5 | 7.0 | 0.00 | 0.01 | 0.01 | 80 | 1013.3 |
| 20260509141542 | 73 | 270 | 2.6 | 5.2 | 0.00 | 0.01 | 0.01 | 80 | 1013.1 |
| 20260509140038 | 69 | 298 | 0.9 | 3.5 | 0.00 | 0.01 | 0.01 | 86 | 1013.3 |
| 20260509134539 | 67 | 16 | 1.7 | 3.5 | 0.00 | 0.01 | 0.01 | 86 | 1013.3 |
| 20260509133054 | 66 | 312 | 0.9 | 2.6 | 0.00 | 0.01 | 0.01 | 88 | 1013.3 |
| 20260509131536 | 66 | 345 | 0.0 | 1.7 | 0.00 | 0.01 | 0.01 | 87 | 1013.1 |
| 20260509130040 | 64 | 0 | 0.0 | 2.6 | 0.00 | 0.01 | 0.01 | 89 | 1012.9 |
| 20260509124538 | 63 | 0 | 0.0 | 1.7 | 0.00 | 0.01 | 0.01 | 90 | 1012.7 |
| 20260509123040 | 62 | 254 | 0.0 | 1.7 | 0.00 | 0.01 | 0.01 | 91 | 1012.4 |
| 20260509121543 | 62 | 0 | 0.0 | 0.9 | 0.00 | 0.01 | 0.01 | 91 | 1012.2 |
| 20260509120037 | 63 | 180 | 0.0 | 2.6 | 0.00 | 0.01 | 0.01 | 91 | 1012.1 |
| 20260509114540 | 62 | 79 | 0.0 | 2.6 | 0.00 | 0.01 | 0.01 | 92 | 1012.0 |
| 20260509113042 | 61 | 323 | 0.0 | 1.7 | 0.00 | 0.01 | 0.01 | 91 | 1011.6 |
| 20260509111539 | 61 | 0 | 0.0 | 2.6 | 0.00 | 0.01 | 0.01 | 91 | 1011.5 |
| 20260509110038 | 62 | 0 | 0.0 | 2.6 | 0.00 | 0.01 | 0.01 | 90 | 1011.3 |
| 20260509104551 | 63 | 0 | 0.0 | 2.6 | 0.00 | 0.01 | 0.01 | 90 | 1011.2 |
| 20260509103038 | 63 | 20 | 0.9 | 2.6 | 0.00 | 0.01 | 0.01 | 89 | 1011.4 |
| 20260509101540 | 64 | 324 | 0.9 | 3.5 | 0.00 | 0.01 | 0.01 | 88 | 1011.4 |
| 20260509100041 | 65 | 264 | 1.7 | 5.2 | 0.00 | 0.01 | 0.01 | 88 | 1011.6 |
| 20260509094537 | 64 | 225 | 1.7 | 3.5 | 0.00 | 0.01 | 0.01 | 89 | 1011.6 |
| 20260509093036 | 64 | 235 | 1.7 | 7.8 | 0.00 | 0.01 | 0.01 | 89 | 1011.2 |
| 20260509091540 | 64 | 186 | 2.6 | 8.7 | 0.00 | 0.01 | 0.01 | 88 | 1011.4 |
| 20260509090051 | 63 | 130 | 3.5 | 8.7 | 0.00 | 0.01 | 0.01 | 86 | 1011.9 |
| 20260509084539 | 63 | 44 | 2.6 | 7.0 | 0.00 | 0.01 | 0.01 | 84 | 1012.0 |
| 20260509083040 | 63 | 233 | 1.7 | 4.3 | 0.00 | 0.01 | 0.01 | 83 | 1011.5 |
| 20260509081550 | 63 | 169 | 5.2 | 10.4 | 0.00 | 0.01 | 0.01 | 82 | 1011.7 |
| 20260509080040 | 63 | 223 | 3.5 | 8.7 | 0.01 | 0.01 | 0.01 | 81 | 1011.9 |
| 20260509074538 | 63 | 133 | 2.6 | 6.1 | 0.01 | 0.01 | 0.01 | 79 | 1011.7 |
| 20260509073046 | 63 | 94 | 1.7 | 11.3 | 0.01 | 0.01 | 0.01 | 82 | 1012.0 |
| 20260509071545 | 64 | 111 | 5.2 | 13.0 | 0.01 | 0.01 | 0.01 | 81 | 1013.3 |
| 20260509070042 | 65 | 55 | 6.1 | 19.1 | 0.00 | 0.00 | 0.00 | 78 | 1014.3 |
| 20260509064542 | 67 | 33 | 12.2 | 28.7 | 0.00 | 0.00 | 0.00 | 82 | 1014.6 |
| 20260509063058 | 68 | 10 | 6.1 | 14.8 | 0.00 | 0.00 | 0.00 | 90 | 1014.3 |
| 20260509061601 | 68 | 25 | 4.3 | 8.7 | 0.00 | 0.00 | 0.00 | 90 | 1013.6 |
| 20260509060051 | 68 | 346 | 7.0 | 14.8 | 0.00 | 0.00 | 0.00 | 89 | 1013.4 |
| 20260509054535 | 68 | 163 | 2.6 | 5.2 | 0.00 | 0.00 | 0.00 | 89 | 1011.6 |
| 20260509053042 | 68 | 192 | 2.6 | 9.6 | 0.00 | 0.00 | 0.00 | 88 | 1011.8 |
| 20260509051541 | 69 | 174 | 4.3 | 9.6 | 0.00 | 0.00 | 0.00 | 88 | 1011.4 |
| 20260509050039 | 69 | 178 | 5.2 | 13.0 | 0.00 | 0.00 | 0.00 | 87 | 1011.1 |